TimeCDT,TemperatureF,Dew PointF,Humidity,Sea Level PressureIn,VisibilityMPH,Wind Direction,Wind SpeedMPH,Gust SpeedMPH,PrecipitationIn,Events,Conditions,WindDirDegrees,DateUTC
12:35 AM,57.2,48.2,72,30.11,10.0,NNE,8.1,-,N/A,,Overcast,20,2012-10-06 05:35:00
12:55 AM,57.2,46.4,67,30.11,10.0,NNE,8.1,16.1,N/A,,Overcast,30,2012-10-06 05:55:00
1:35 AM,57.2,46.4,67,30.11,10.0,NNE,5.8,-,N/A,,Overcast,20,2012-10-06 06:35:00
2:15 AM,55.4,46.4,72,30.11,10.0,NNE,11.5,-,N/A,,Overcast,20,2012-10-06 07:15:00
2:35 AM,55.4,46.4,72,30.12,10.0,NNE,10.4,17.3,N/A,,Overcast,20,2012-10-06 07:35:00
2:55 AM,55.4,46.4,72,30.12,10.0,NNE,6.9,-,N/A,,Overcast,20,2012-10-06 07:55:00
3:35 AM,55.4,46.4,72,30.12,10.0,North,10.4,17.3,N/A,,Overcast,10,2012-10-06 08:35:00
3:55 AM,55.4,46.4,72,30.11,10.0,NNE,11.5,-,N/A,,Overcast,20,2012-10-06 08:55:00
4:15 AM,55.4,46.4,72,30.11,10.0,North,11.5,-,N/A,,Overcast,10,2012-10-06 09:15:00
5:55 AM,53.6,44.6,72,30.13,10.0,North,12.7,-,N/A,,Overcast,350,2012-10-06 10:55:00
6:15 AM,53.6,44.6,72,30.14,10.0,North,12.7,16.1,N/A,,Overcast,350,2012-10-06 11:15:00
6:35 AM,53.6,44.6,72,30.14,10.0,North,9.2,-,N/A,,Overcast,10,2012-10-06 11:35:00
6:55 AM,53.6,44.6,72,30.15,10.0,North,10.4,-,N/A,,Overcast,10,2012-10-06 11:55:00
8:55 AM,51.8,44.6,76,30.17,10.0,NNE,8.1,-,N/A,,Overcast,30,2012-10-06 13:55:00
9:15 AM,51.8,44.6,76,30.16,10.0,NNE,10.4,-,N/A,,Overcast,20,2012-10-06 14:15:00
9:35 AM,51.8,44.6,76,30.17,10.0,North,11.5,-,N/A,,Overcast,360,2012-10-06 14:35:00
12:35 PM,51.8,46.4,82,30.18,10.0,North,10.4,-,N/A,,Overcast,360,2012-10-06 17:35:00
1:35 PM,53.6,46.4,77,30.16,10.0,North,6.9,-,N/A,,Overcast,360,2012-10-06 18:35:00
1:55 PM,53.6,46.4,77,30.15,10.0,North,10.4,-,N/A,,Overcast,350,2012-10-06 18:55:00
2:35 PM,53.6,46.4,77,30.15,10.0,NNE,10.4,-,N/A,,Overcast,20,2012-10-06 19:35:00
2:55 PM,53.6,46.4,77,30.14,10.0,North,8.1,-,N/A,,Overcast,360,2012-10-06 19:55:00
3:15 PM,53.6,46.4,77,30.14,10.0,North,11.5,-,N/A,,Overcast,360,2012-10-06 20:15:00
3:35 PM,53.6,44.6,72,30.13,10.0,North,8.1,-,N/A,,Overcast,360,2012-10-06 20:35:00
3:55 PM,53.6,44.6,72,30.14,10.0,North,10.4,16.1,N/A,,Overcast,360,2012-10-06 20:55:00
4:15 PM,55.4,44.6,67,30.14,10.0,North,10.4,16.1,N/A,,Overcast,360,2012-10-06 21:15:00
4:35 PM,53.6,42.8,67,30.14,10.0,NNE,9.2,-,N/A,,Overcast,20,2012-10-06 21:35:00
4:55 PM,55.4,42.8,63,30.14,10.0,NNE,10.4,-,N/A,,Overcast,30,2012-10-06 21:55:00
5:35 PM,53.6,41.0,62,30.15,10.0,NNE,9.2,-,N/A,,Overcast,20,2012-10-06 22:35:00
5:55 PM,53.6,41.0,62,30.15,10.0,NNE,9.2,-,N/A,,Overcast,20,2012-10-06 22:55:00
6:15 PM,53.6,41.0,62,30.15,10.0,NNE,9.2,-,N/A,,Overcast,20,2012-10-06 23:15:00
6:55 PM,53.6,41.0,62,30.16,10.0,North,13.8,-,N/A,,Overcast,10,2012-10-06 23:55:00
7:15 PM,51.8,41.0,67,30.17,10.0,NNE,11.5,17.3,N/A,,Overcast,20,2012-10-07 00:15:00
7:35 PM,51.8,41.0,67,30.18,10.0,North,13.8,18.4,N/A,,Overcast,10,2012-10-07 00:35:00
7:55 PM,50.0,41.0,71,30.19,10.0,NNE,9.2,18.4,N/A,,Overcast,20,2012-10-07 00:55:00
8:15 PM,50.0,41.0,71,30.19,10.0,NNE,11.5,17.3,N/A,,Overcast,20,2012-10-07 01:15:00
8:35 PM,50.0,41.0,71,30.20,10.0,NNE,11.5,18.4,N/A,,Overcast,20,2012-10-07 01:35:00
8:55 PM,50.0,41.0,71,30.21,10.0,North,12.7,18.4,N/A,,Overcast,10,2012-10-07 01:55:00
9:15 PM,50.0,41.0,71,30.21,10.0,NNE,11.5,-,N/A,,Overcast,20,2012-10-07 02:15:00
9:35 PM,48.2,42.8,82,30.23,10.0,North,11.5,-,N/A,,Overcast,360,2012-10-07 02:35:00
9:55 PM,48.2,41.0,76,30.24,10.0,NNE,12.7,19.6,N/A,,Overcast,20,2012-10-07 02:55:00
10:15 PM,46.4,41.0,81,30.24,10.0,North,11.5,18.4,N/A,,Overcast,10,2012-10-07 03:15:00
10:35 PM,46.4,41.0,81,30.25,10.0,North,11.5,-,N/A,,Overcast,10,2012-10-07 03:35:00
10:55 PM,46.4,41.0,81,30.24,10.0,North,10.4,16.1,N/A,,Overcast,10,2012-10-07 03:55:00
11:15 PM,46.4,41.0,81,30.25,10.0,North,8.1,-,N/A,,Overcast,10,2012-10-07 04:15:00
11:35 PM,46.4,41.0,81,30.25,10.0,North,13.8,-,N/A,,Overcast,10,2012-10-07 04:35:00